WST703 MYGF-MYNN

Flight info

Callsign WST703
Flight time 0h 26m
Altitude 15000
Route DCT ZFP BR63V HANKX/N0303F140 BR63V ZQA DCT
Aircraft E145/M-SABDFGRW/S

Departure

Time 2026-04-12 11:22
Airport Grand Bahama International Airport (MYGF)

Arrival

Time 2026-04-12 11:48
Airport Lynden Pindling International Airport (MYNN)
Time Latitude Longitude Altitude Speed Heading
2026-04-12 11:11 26.54862 -78.69780 13 ft 0 kts 229°
2026-04-12 11:18 26.54875 -78.69797 13 ft 12 kts 330°
2026-04-12 11:19 26.54917 -78.69888 13 ft 13 kts 269°
2026-04-12 11:19 26.54917 -78.70003 13 ft 16 kts 270°
2026-04-12 11:19 26.54920 -78.70136 13 ft 18 kts 272°
2026-04-12 11:19 26.54930 -78.70283 13 ft 19 kts 284°
2026-04-12 11:20 26.54965 -78.70437 13 ft 21 kts 279°
2026-04-12 11:20 26.54972 -78.70606 13 ft 22 kts 270°
2026-04-12 11:20 26.54978 -78.70778 13 ft 24 kts 273°
2026-04-12 11:20 26.54987 -78.70970 13 ft 24 kts 289°
2026-04-12 11:21 26.55134 -78.71006 13 ft 16 kts 355°
2026-04-12 11:21 26.55237 -78.70824 13 ft 62 kts 57°
2026-04-12 11:21 26.55567 -78.70162 13 ft 128 kts 61°
2026-04-12 11:21 26.56013 -78.69241 505 ft 131 kts 62°
2026-04-12 11:22 26.56416 -78.68413 1279 ft 120 kts 64°
2026-04-12 11:22 26.56748 -78.67573 1913 ft 120 kts 69°
2026-04-12 11:22 26.56858 -78.66673 2501 ft 126 kts 92°
2026-04-12 11:22 26.56451 -78.65731 2931 ft 151 kts 124°
2026-04-12 11:23 26.55636 -78.64797 3298 ft 182 kts 131°
2026-04-12 11:23 26.54674 -78.63847 4123 ft 188 kts 133°
2026-04-12 11:23 26.53815 -78.63042 4940 ft 188 kts 133°
2026-04-12 11:23 26.52709 -78.62026 5864 ft 192 kts 133°
2026-04-12 11:24 26.51682 -78.61091 6687 ft 194 kts 133°
2026-04-12 11:24 26.50638 -78.60144 7495 ft 196 kts 134°
2026-04-12 11:24 26.49582 -78.59187 8130 ft 199 kts 134°
2026-04-12 11:24 26.48466 -78.58173 8455 ft 219 kts 135°
2026-04-12 11:25 26.47201 -78.57026 8480 ft 252 kts 136°
2026-04-12 11:25 26.45741 -78.55706 8571 ft 281 kts 136°
2026-04-12 11:25 26.44396 -78.54111 9081 ft 284 kts 123°
2026-04-12 11:25 26.43182 -78.52396 9787 ft 284 kts 124°
2026-04-12 11:26 26.41967 -78.50645 10403 ft 288 kts 123°
2026-04-12 11:26 26.40429 -78.49153 10984 ft 300 kts 144°
2026-04-12 11:26 26.38679 -78.47908 11593 ft 302 kts 142°
2026-04-12 11:26 26.36910 -78.46596 12156 ft 306 kts 143°
2026-04-12 11:27 26.35127 -78.45270 12715 ft 310 kts 143°
2026-04-12 11:27 26.33346 -78.43944 13279 ft 313 kts 143°
2026-04-12 11:27 26.31503 -78.42573 13829 ft 317 kts 143°
2026-04-12 11:27 26.29673 -78.41212 14364 ft 321 kts 143°
2026-04-12 11:28 26.27810 -78.39826 14894 ft 324 kts 143°
2026-04-12 11:28 26.25878 -78.38390 15015 ft 336 kts 143°
2026-04-12 11:28 26.23884 -78.36909 15028 ft 349 kts 143°
2026-04-12 11:28 26.21847 -78.35396 15029 ft 361 kts 143°
2026-04-12 11:29 26.20219 -78.34188 15029 ft 369 kts 144°
2026-04-12 11:29 26.18061 -78.32588 15027 ft 378 kts 144°
2026-04-12 11:29 26.15830 -78.30935 15025 ft 387 kts 144°
2026-04-12 11:29 26.13545 -78.29242 15023 ft 394 kts 144°
2026-04-12 11:30 26.11257 -78.27547 15023 ft 400 kts 144°
2026-04-12 11:30 26.08930 -78.25824 15020 ft 402 kts 144°
2026-04-12 11:30 26.06601 -78.24101 15019 ft 402 kts 144°
2026-04-12 11:30 26.04244 -78.22357 15020 ft 402 kts 144°
2026-04-12 11:31 26.01922 -78.20641 15018 ft 402 kts 144°
2026-04-12 11:31 25.99575 -78.18906 15020 ft 402 kts 144°
2026-04-12 11:31 25.97218 -78.17165 15019 ft 402 kts 144°
2026-04-12 11:31 25.94879 -78.15437 15018 ft 402 kts 144°
2026-04-12 11:32 25.92570 -78.13732 15019 ft 402 kts 144°
2026-04-12 11:32 25.90216 -78.11996 15015 ft 402 kts 144°
2026-04-12 11:32 25.87864 -78.10261 15011 ft 402 kts 144°
2026-04-12 11:32 25.85498 -78.08518 15007 ft 402 kts 144°
2026-04-12 11:33 25.83148 -78.06786 15011 ft 401 kts 144°
2026-04-12 11:33 25.80799 -78.05057 15010 ft 401 kts 144°
2026-04-12 11:33 25.78453 -78.03330 15010 ft 401 kts 144°
2026-04-12 11:33 25.76106 -78.01604 15009 ft 401 kts 144°
2026-04-12 11:34 25.73776 -77.99891 15010 ft 401 kts 144°
2026-04-12 11:34 25.71455 -77.98185 15009 ft 401 kts 144°
2026-04-12 11:34 25.69096 -77.96452 15006 ft 401 kts 144°
2026-04-12 11:34 25.66782 -77.94752 15008 ft 401 kts 144°
2026-04-12 11:35 25.64422 -77.93021 15006 ft 402 kts 144°
2026-04-12 11:35 25.62112 -77.91327 15008 ft 402 kts 144°
2026-04-12 11:35 25.59744 -77.89591 15007 ft 402 kts 144°
2026-04-12 11:35 25.57427 -77.87893 15006 ft 402 kts 144°
2026-04-12 11:36 25.55092 -77.86182 15006 ft 402 kts 145°
2026-04-12 11:36 25.52744 -77.84463 15007 ft 402 kts 144°
2026-04-12 11:36 25.50442 -77.82780 15004 ft 393 kts 145°
2026-04-12 11:36 25.48207 -77.81145 14809 ft 379 kts 144°
2026-04-12 11:37 25.46008 -77.79537 14437 ft 371 kts 144°
2026-04-12 11:37 25.43866 -77.77972 14070 ft 364 kts 144°
2026-04-12 11:37 25.41858 -77.76346 13702 ft 357 kts 139°
2026-04-12 11:37 25.39680 -77.75002 13336 ft 354 kts 158°
2026-04-12 11:38 25.37483 -77.73875 12987 ft 347 kts 148°
2026-04-12 11:38 25.35382 -77.72561 12631 ft 343 kts 148°
2026-04-12 11:38 25.33304 -77.71262 12270 ft 339 kts 148°
2026-04-12 11:38 25.31265 -77.69988 11915 ft 336 kts 148°
2026-04-12 11:39 25.29227 -77.68715 11555 ft 333 kts 148°
2026-04-12 11:39 25.27204 -77.67452 11192 ft 330 kts 148°
2026-04-12 11:39 25.25214 -77.66210 10830 ft 327 kts 147°
2026-04-12 11:39 25.23256 -77.64988 10469 ft 324 kts 147°
2026-04-12 11:40 25.21283 -77.63757 10104 ft 322 kts 147°
2026-04-12 11:40 25.19424 -77.62598 9758 ft 319 kts 147°
2026-04-12 11:40 25.17567 -77.61320 9211 ft 319 kts 136°
2026-04-12 11:40 25.16073 -77.59675 8281 ft 305 kts 129°
2026-04-12 11:41 25.14997 -77.57849 7408 ft 286 kts 105°
2026-04-12 11:41 25.14818 -77.55793 6544 ft 269 kts 77°
2026-04-12 11:41 25.15454 -77.54144 5760 ft 261 kts 52°
2026-04-12 11:41 25.16956 -77.52923 4839 ft 260 kts 22°
2026-04-12 11:42 25.18769 -77.52780 3955 ft 266 kts 352°
2026-04-12 11:42 25.20417 -77.53690 3085 ft 274 kts 322°
2026-04-12 11:42 25.21610 -77.55313 2300 ft 275 kts 303°
2026-04-12 11:43 25.21498 -77.59013 2003 ft 230 kts 229°
2026-04-12 11:43 25.20272 -77.59932 2020 ft 200 kts 185°
2026-04-12 11:43 25.18964 -77.59815 2020 ft 189 kts 156°
2026-04-12 11:43 25.17672 -77.59405 1907 ft 195 kts 157°
2026-04-12 11:44 25.16338 -77.58988 1792 ft 201 kts 156°
2026-04-12 11:44 25.15095 -77.58324 1712 ft 195 kts 138°
2026-04-12 11:44 25.14063 -77.57403 1624 ft 185 kts 131°
2026-04-12 11:44 25.13182 -77.56490 1537 ft 169 kts 129°
2026-04-12 11:45 25.12357 -77.55581 1410 ft 163 kts 128°
2026-04-12 11:45 25.11584 -77.54716 1373 ft 157 kts 128°
2026-04-12 11:45 25.10830 -77.53863 1342 ft 154 kts 127°
2026-04-12 11:45 25.10075 -77.53020 1307 ft 152 kts 128°
2026-04-12 11:46 25.09336 -77.52195 1276 ft 150 kts 128°
2026-04-12 11:46 25.08598 -77.51372 1191 ft 149 kts 128°
2026-04-12 11:46 25.07883 -77.50574 1032 ft 148 kts 129°
2026-04-12 11:46 25.07160 -77.49754 780 ft 150 kts 121°
2026-04-12 11:47 25.06431 -77.48926 531 ft 152 kts 131°
2026-04-12 11:47 25.05677 -77.48113 236 ft 150 kts 128°
2026-04-12 11:47 25.04964 -77.47318 53 ft 136 kts 130°
2026-04-12 11:47 25.04370 -77.46654 25 ft 96 kts 133°
2026-04-12 11:48 25.04117 -77.46265 24 ft 40 kts 109°
2026-04-12 11:48 25.04179 -77.46190 24 ft 17 kts 309°
2026-04-12 11:48 25.04273 -77.46304 24 ft 23 kts 316°
2026-04-12 11:48 25.04406 -77.46447 25 ft 29 kts 318°
2026-04-12 11:49 25.04568 -77.46626 25 ft 35 kts 314°
2026-04-12 11:49 25.04673 -77.46736 25 ft 12 kts 339°